FW1310 Weather Reports


Display with metric or nautical units.
time (UTC)temp
F
wind
direction
speed
MPH
gust
MPH
rain 1hr
in
rain 24hr
in
rain mn
in
humidity
%
barometer
mb
20260831022003 88 136 1.0 3.0 0.00 0.00 0.00 53 997.6
20260831021502 88 147 1.0 2.0 0.00 0.00 0.00 53 997.6
20260831021003 88 149 2.0 2.0 0.00 0.00 0.00 52 997.4
20260831020502 88 138 1.0 2.0 0.00 0.00 0.00 53 997.3
20260831020003 89 153 1.0 3.0 0.00 0.00 0.00 52 997.4
20260831015503 89 163 1.0 2.0 0.00 0.00 0.00 52 997.2
20260831015003 89 135 1.0 5.0 0.00 0.00 0.00 52 997.3
20260831014503 89 144 2.0 5.0 0.00 0.00 0.00 51 997.3
20260831014003 89 130 1.0 2.0 0.00 0.00 0.00 51 997.3
20260831013503 90 111 0.0 1.0 0.00 0.00 0.00 50 997.0
20260831013003 90 140 1.0 2.0 0.00 0.00 0.00 50 996.9
20260831012503 90 133 1.0 2.0 0.00 0.00 0.00 50 997.0
20260831011503 91 108 1.0 2.0 0.00 0.00 0.00 49 996.9
20260831010003 91 143 1.0 3.0 0.00 0.00 0.00 48 997.1
20260831005503 92 154 2.0 3.0 0.00 0.00 0.00 48 996.9
20260831005003 92 104 1.0 5.0 0.00 0.00 0.00 48 996.9
20260831004503 92 141 1.0 3.0 0.00 0.00 0.00 47 996.9
20260831003503 93 148 2.0 3.0 0.00 0.00 0.00 47 996.9
20260831003003 93 147 3.0 6.0 0.00 0.00 0.00 46 996.7
20260831002503 93 179 3.0 6.0 0.00 0.00 0.00 46 996.9
20260831002003 93 122 2.0 6.0 0.00 0.00 0.00 46 996.8
20260831001503 93 175 3.0 6.0 0.00 0.00 0.00 46 997.0
20260831001003 94 35 2.0 3.0 0.00 0.00 0.00 46 997.0
20260831000003 94 146 3.0 8.0 0.00 0.00 0.00 45 997.0
20260830235003 95 172 3.0 6.0 0.00 0.00 0.00 45 996.8
20260830234503 96 172 4.0 7.0 0.00 0.00 0.00 44 996.9
20260830233503 97 180 2.0 6.0 0.00 0.00 0.00 42 997.0
20260830233003 96 109 2.0 6.0 0.00 0.00 0.00 42 996.8
20260830231504 97 206 3.0 6.0 0.00 0.00 0.00 41 996.9
20260830231003 96 176 3.0 7.0 0.00 0.00 0.00 40 996.9
20260830230004 97 177 3.0 5.0 0.00 0.00 0.00 40 996.9
20260830225503 96 182 3.0 6.0 0.00 0.00 0.00 40 997.2
20260830225003 96 216 4.0 6.0 0.00 0.00 0.00 42 997.0
20260830224003 97 134 3.0 7.0 0.00 0.00 0.00 40 997.0
20260830223503 97 190 5.0 12.0 0.00 0.00 0.00 41 997.1
20260830223003 97 163 4.0 7.0 0.00 0.00 0.00 42 997.1
20260830222503 98 184 3.0 6.0 0.00 0.00 0.00 42 997.0
20260830221503 98 186 2.0 5.0 0.00 0.00 0.00 41 997.2
20260830221002 97 172 3.0 6.0 0.00 0.00 0.00 41 997.2
20260830220503 97 150 3.0 8.0 0.00 0.00 0.00 41 997.3
20260830220003 98 167 2.0 5.0 0.00 0.00 0.00 42 997.3
20260830214003 97 181 4.0 8.0 0.00 0.00 0.00 43 997.5
20260830213502 97 278 3.0 8.0 0.00 0.00 0.00 42 997.6
20260830213034 97 173 5.0 8.0 0.00 0.00 0.00 43 997.5
20260830212503 97 191 3.0 5.0 0.00 0.00 0.00 44 997.6
20260830212002 96 162 4.0 8.0 0.00 0.00 0.00 45 997.9
20260830211536 97 175 5.0 8.0 0.00 0.00 0.00 44 997.9
20260830211003 97 170 4.0 8.0 0.00 0.00 0.00 44 998.2
20260830210503 95 149 3.0 9.0 0.00 0.00 0.00 46 998.0
20260830210035 97 195 5.0 9.0 0.00 0.00 0.00 44 998.0
20260830205502 96 162 2.0 5.0 0.00 0.00 0.00 46 998.2
20260830205003 96 157 3.0 8.0 0.00 0.00 0.00 46 998.4
20260830204512 97 222 5.0 8.0 0.00 0.00 0.00 44 998.4
20260830204003 96 79 4.0 7.0 0.00 0.00 0.00 45 998.4
20260830203503 96 163 4.0 7.0 0.00 0.00 0.00 47 998.6
20260830203002 96 175 5.0 9.0 0.00 0.00 0.00 47 998.6
20260830202502 96 189 3.0 13.0 0.00 0.00 0.00 45 998.6
20260830202002 97 195 2.0 8.0 0.00 0.00 0.00 43 998.5
20260830201504 96 176 4.0 9.0 0.00 0.00 0.00 46 998.6
20260830201003 97 209 3.0 7.0 0.00 0.00 0.00 46 998.7
20260830200003 97 194 5.0 9.0 0.00 0.00 0.00 47 998.9
20260830195502 96 180 1.0 6.0 0.00 0.00 0.00 46 998.8
20260830195002 95 94 3.0 8.0 0.00 0.00 0.00 49 999.0
20260830194502 97 184 5.0 12.0 0.00 0.00 0.00 45 999.1
20260830194002 96 171 2.0 7.0 0.00 0.00 0.00 48 999.2
20260830193002 95 192 3.0 7.0 0.00 0.00 0.00 47 999.3
20260830192503 95 195 3.0 7.0 0.00 0.00 0.00 47 999.2
20260830192002 96 184 3.0 7.0 0.00 0.00 0.00 48 999.2
20260830191003 94 181 7.0 13.0 0.00 0.00 0.00 49 999.5
20260830190502 94 165 4.0 7.0 0.00 0.00 0.00 52 999.5
20260830185502 94 217 5.0 7.0 0.00 0.00 0.00 52 999.8
20260830185002 94 170 3.0 8.0 0.00 0.00 0.00 51 999.8
20260830184502 94 196 3.0 5.0 0.00 0.00 0.00 50 999.9
20260830184003 94 140 2.0 9.0 0.00 0.00 0.00 53 1000.0
20260830183502 94 170 5.0 8.0 0.00 0.00 0.00 53 1000.0
20260830183003 94 193 6.0 10.0 0.00 0.00 0.00 54 1000.1
20260830182503 92 155 2.0 7.0 0.00 0.00 0.00 54 1000.3
20260830182002 93 156 5.0 8.0 0.00 0.00 0.00 56 1000.3
20260830181502 92 174 6.0 13.0 0.00 0.00 0.00 56 1000.3
20260830181003 93 139 2.0 8.0 0.00 0.00 0.00 54 1000.3
20260830180503 93 147 2.0 7.0 0.00 0.00 0.00 55 1000.6
20260830180003 92 145 3.0 7.0 0.00 0.00 0.00 58 1000.8
20260830175502 92 227 5.0 9.0 0.00 0.00 0.00 56 1000.8
20260830175002 91 141 4.0 8.0 0.00 0.00 0.00 57 1000.9
20260830174502 93 254 6.0 10.0 0.00 0.00 0.00 54 1001.0
20260830174002 92 181 3.0 6.0 0.00 0.00 0.00 55 1001.1
20260830173002 91 205 5.0 10.0 0.00 0.00 0.00 56 1001.2
20260830172502 91 231 6.0 10.0 0.00 0.00 0.00 56 1001.1
20260830172003 91 157 2.0 7.0 0.00 0.00 0.00 59 1001.1
20260830171502 92 176 6.0 9.0 0.00 0.00 0.00 58 1001.3
20260830170502 90 232 4.0 8.0 0.00 0.00 0.00 59 1001.3
20260830170002 90 296 4.0 7.0 0.00 0.00 0.00 59 1001.6
20260830165503 90 177 6.0 9.0 0.00 0.00 0.00 60 1001.4
20260830165002 91 174 6.0 8.0 0.00 0.00 0.00 60 1001.5
20260830164002 89 190 4.0 6.0 0.00 0.00 0.00 64 1001.5
20260830162503 89 165 2.0 7.0 0.00 0.00 0.00 64 1001.6
20260830162003 89 142 3.0 6.0 0.00 0.00 0.00 63 1001.6
20260830161502 89 162 2.0 3.0 0.00 0.00 0.00 65 1001.8
20260830161003 87 257 3.0 7.0 0.00 0.00 0.00 67 1001.7
20260830160502 87 272 4.0 7.0 0.00 0.00 0.00 66 1001.7
20260830160003 87 267 5.0 7.0 0.00 0.00 0.00 66 1001.7
20260830155003 86 208 3.0 8.0 0.00 0.00 0.00 69 1001.6
20260830154003 86 200 3.0 7.0 0.00 0.00 0.00 70 1001.6
20260830153502 86 248 5.0 8.0 0.00 0.00 0.00 70 1001.4
20260830153002 85 218 3.0 7.0 0.00 0.00 0.00 70 1001.4
20260830152003 85 260 3.0 8.0 0.00 0.00 0.00 71 1001.4
20260830151502 85 176 4.0 7.0 0.00 0.00 0.00 73 1001.5
20260830151003 84 155 5.0 8.0 0.00 0.00 0.00 75 1001.3
20260830150502 84 159 4.0 6.0 0.00 0.00 0.00 75 1001.4
20260830144502 82 263 4.0 8.0 0.00 0.00 0.00 77 1001.4
20260830144003 82 175 6.0 8.0 0.00 0.00 0.00 79 1001.4
20260830143503 82 236 4.0 6.0 0.00 0.00 0.00 79 1001.3
20260830143002 82 195 3.0 5.0 0.00 0.00 0.00 80 1001.4
20260830142502 81 154 4.0 7.0 0.00 0.00 0.00 81 1001.4
20260830142002 81 227 2.0 5.0 0.00 0.00 0.00 83 1001.4
20260830141003 80 168 3.0 7.0 0.00 0.00 0.00 84 1001.2
20260830140502 79 322 3.0 7.0 0.00 0.00 0.00 85 1001.0
20260830140002 79 238 4.0 8.0 0.00 0.00 0.00 86 1001.2
20260830135502 79 242 4.0 6.0 0.00 0.00 0.00 85 1000.9
20260830135003 79 259 4.0 8.0 0.00 0.00 0.00 86 1001.0
20260830134502 79 140 3.0 6.0 0.00 0.00 0.00 86 1001.0
20260830134002 78 253 3.0 7.0 0.00 0.00 0.00 87 1001.0
20260830133502 78 255 4.0 7.0 0.00 0.00 0.00 87 1000.8
20260830132002 77 249 2.0 3.0 0.00 0.00 0.00 89 1000.6
20260830131502 76 164 2.0 5.0 0.00 0.00 0.00 90 1000.6
20260830131002 76 269 2.0 5.0 0.00 0.00 0.00 91 1000.6
20260830130502 76 269 2.0 5.0 0.00 0.00 0.00 91 1000.7
20260830130002 75 143 1.0 2.0 0.00 0.00 0.00 92 1000.6
20260830125504 75 142 2.0 3.0 0.00 0.00 0.00 92 1000.6
20260830125003 75 146 2.0 3.0 0.00 0.00 0.00 93 1000.5
20260830124504 74 209 2.0 3.0 0.00 0.00 0.00 93 1000.5
20260830124004 74 265 1.0 3.0 0.00 0.00 0.00 93 1000.5
20260830123502 74 195 2.0 2.0 0.00 0.00 0.00 93 1000.4
20260830123003 74 228 2.0 2.0 0.00 0.00 0.00 92 1000.4
20260830122503 74 187 2.0 2.0 0.00 0.00 0.00 92 1000.4
20260830122004 74 147 1.0 2.0 0.00 0.00 0.00 92 1000.4
20260830121502 74 136 2.0 3.0 0.00 0.00 0.00 92 1000.1
20260830121003 74 135 2.0 3.0 0.00 0.00 0.00 92 1000.0
20260830120003 74 247 1.0 3.0 0.00 0.00 0.00 91 1000.1
20260830115503 74 248 2.0 3.0 0.00 0.00 0.00 91 1000.1
20260830115003 74 123 1.0 3.0 0.00 0.00 0.00 90 1000.0
20260830114502 74 177 2.0 3.0 0.00 0.00 0.00 90 1000.1
20260830114003 75 156 1.0 2.0 0.00 0.00 0.00 90 999.9
20260830113003 75 133 1.0 3.0 0.00 0.00 0.00 89 1000.0
20260830112503 75 149 2.0 3.0 0.00 0.00 0.00 89 999.9
20260830112003 75 144 1.0 5.0 0.00 0.00 0.00 89 999.8
20260830111503 75 160 2.0 5.0 0.00 0.00 0.00 88 999.8
20260830111003 75 214 2.0 3.0 0.00 0.00 0.00 88 999.9
20260830110503 75 176 2.0 3.0 0.00 0.00 0.00 88 999.8
20260830110004 75 142 1.0 3.0 0.00 0.00 0.00 87 999.7
20260830105503 76 151 2.0 3.0 0.00 0.00 0.00 87 999.9
20260830105002 76 199 1.0 2.0 0.00 0.00 0.00 87 999.8
20260830104502 76 211 2.0 3.0 0.00 0.00 0.00 87 999.8
20260830104003 76 173 2.0 3.0 0.00 0.00 0.00 86 999.6
20260830103503 76 195 1.0 5.0 0.00 0.00 0.00 86 999.6
20260830103003 76 174 2.0 2.0 0.00 0.00 0.00 86 999.7
20260830102503 76 222 2.0 3.0 0.00 0.00 0.00 85 999.6
20260830101503 77 208 2.0 6.0 0.00 0.00 0.00 84 999.7
20260830101003 77 222 3.0 6.0 0.00 0.00 0.00 84 999.6
20260830100503 77 261 3.0 6.0 0.00 0.00 0.00 84 999.7
20260830100003 77 175 3.0 6.0 0.00 0.00 0.00 84 999.6
20260830095503 77 203 3.0 6.0 0.00 0.00 0.00 83 999.5
20260830095003 77 208 3.0 6.0 0.00 0.00 0.00 83 999.6
20260830094503 77 167 3.0 8.0 0.00 0.00 0.00 83 999.5
20260830094004 77 243 4.0 8.0 0.00 0.00 0.00 83 999.5
20260830093502 77 173 3.0 6.0 0.00 0.00 0.00 83 999.5
20260830093003 77 156 3.0 6.0 0.00 0.00 0.00 82 999.5
20260830092503 77 285 3.0 6.0 0.00 0.00 0.00 82 999.5
20260830092003 77 167 2.0 6.0 0.00 0.00 0.00 82 999.5
20260830091503 78 175 2.0 6.0 0.00 0.00 0.00 82 999.6
20260830091002 78 237 3.0 7.0 0.00 0.00 0.00 81 999.6
20260830090503 78 282 3.0 7.0 0.00 0.00 0.00 82 999.5
20260830090004 78 159 2.0 5.0 0.00 0.00 0.00 82 999.7
20260830085504 78 138 2.0 5.0 0.00 0.00 0.00 81 999.8
20260830085002 78 223 2.0 5.0 0.00 0.00 0.00 81 999.7
20260830084503 78 266 3.0 6.0 0.00 0.00 0.00 81 999.6
20260830084003 78 138 5.0 10.0 0.00 0.00 0.00 80 999.6
20260830083503 78 176 3.0 8.0 0.00 0.00 0.00 80 999.8
20260830083003 79 155 3.0 6.0 0.00 0.00 0.00 80 999.7
20260830082503 79 182 4.0 6.0 0.00 0.00 0.00 79 999.7
20260830082003 79 171 4.0 9.0 0.00 0.00 0.00 79 999.8
20260830081503 79 164 3.0 6.0 0.00 0.00 0.00 80 999.8
20260830081003 79 196 3.0 8.0 0.00 0.00 0.00 79 999.9
20260830080503 79 158 3.0 8.0 0.00 0.00 0.00 79 999.7
20260830080003 79 185 4.0 8.0 0.00 0.00 0.00 79 1000.0
20260830075503 79 195 5.0 8.0 0.00 0.00 0.00 79 999.9
20260830075003 79 160 3.0 7.0 0.00 0.00 0.00 79 999.8
20260830074502 79 198 4.0 7.0 0.00 0.00 0.00 79 999.9
20260830074003 79 169 3.0 7.0 0.00 0.00 0.00 79 999.8
20260830073503 80 168 5.0 7.0 0.00 0.00 0.00 79 1000.0
20260830072503 80 176 5.0 8.0 0.00 0.00 0.00 78 1000.0
20260830072003 80 223 3.0 6.0 0.00 0.00 0.00 78 999.9
20260830071503 80 197 3.0 6.0 0.00 0.00 0.00 78 999.8
20260830071003 80 104 3.0 6.0 0.00 0.00 0.00 77 999.8
20260830070503 81 139 3.0 7.0 0.00 0.00 0.00 77 999.9
20260830070003 81 182 4.0 7.0 0.00 0.00 0.00 76 999.9
20260830065502 81 204 3.0 6.0 0.00 0.00 0.00 76 999.9
20260830065003 81 117 2.0 6.0 0.00 0.00 0.00 76 999.9
20260830064503 81 163 3.0 6.0 0.00 0.00 0.00 76 1000.1
20260830064003 81 187 3.0 6.0 0.00 0.00 0.00 76 1000.0
20260830063503 81 174 3.0 7.0 0.00 0.00 0.00 75 1000.0
20260830063003 81 199 3.0 5.0 0.00 0.00 0.00 75 999.9
20260830062502 82 235 3.0 5.0 0.00 0.00 0.00 75 999.8
20260830062003 82 200 4.0 7.0 0.00 0.00 0.00 74 1000.0
20260830061503 82 150 3.0 5.0 0.00 0.00 0.00 74 1000.1
20260830061003 82 205 3.0 8.0 0.00 0.00 0.00 74 1000.1
20260830060503 82 214 4.0 8.0 0.00 0.00 0.00 74 1000.0
20260830055502 83 180 3.0 6.0 0.00 0.00 0.00 73 1000.0
20260830055003 83 260 3.0 6.0 0.00 0.00 0.00 72 1000.0
20260830054003 83 218 6.0 8.0 0.00 0.00 0.00 72 999.9
20260830053503 83 174 3.0 7.0 0.00 0.00 0.00 71 999.9
20260830053003 83 184 5.0 9.0 0.00 0.00 0.00 71 1000.0
20260830052503 84 163 5.0 10.0 0.00 0.00 0.00 71 999.9
20260830052003 84 187 6.0 9.0 0.00 0.00 0.00 71 1000.0
20260830051503 84 146 5.0 9.0 0.00 0.00 0.00 71 1000.0
20260830051003 84 182 2.0 8.0 0.00 0.00 0.00 71 999.9
20260830050503 84 158 5.0 8.0 0.00 0.00 0.00 71 999.7
20260830050004 84 171 3.0 7.0 0.00 0.00 0.00 70 999.9
20260830045503 85 173 3.0 7.0 0.00 0.00 0.00 70 999.9
20260830045003 85 204 5.0 8.0 0.00 0.00 0.00 70 999.8
20260830044503 85 225 4.0 10.0 0.00 0.00 0.00 70 999.9
20260830044002 85 167 3.0 7.0 0.00 0.00 0.00 70 999.9
20260830043503 85 155 3.0 8.0 0.00 0.00 0.00 69 999.8
20260830043003 85 171 5.0 7.0 0.00 0.00 0.00 69 999.8
20260830042503 85 204 3.0 8.0 0.00 0.00 0.00 68 1000.0
20260830042003 85 154 4.0 8.0 0.00 0.00 0.00 67 999.8
20260830034504 86 222 3.0 7.0 0.00 0.00 0.00 62 999.7
20260830034003 86 154 4.0 6.0 0.00 0.00 0.00 60 999.8
20260830033503 86 159 3.0 5.0 0.00 0.00 0.00 59 999.8
20260830033003 86 177 2.0 5.0 0.00 0.00 0.00 58 999.8
20260830032503 86 182 3.0 6.0 0.00 0.00 0.00 57 999.8
20260830032003 86 169 2.0 6.0 0.00 0.00 0.00 57 999.9
20260830031503 86 155 3.0 5.0 0.00 0.00 0.00 57 999.6
20260830031003 86 167 1.0 5.0 0.00 0.00 0.00 57 999.6
20260830030504 86 134 2.0 3.0 0.00 0.00 0.00 56 999.7
20260830025503 86 130 1.0 2.0 0.00 0.00 0.00 56 999.5
20260830025003 86 153 1.0 2.0 0.00 0.00 0.00 55 999.4
20260830024503 87 134 1.0 2.0 0.00 0.00 0.00 55 999.2
20260830023503 87 144 1.0 1.0 0.00 0.00 0.00 54 999.2
20260830023003 87 138 1.0 3.0 0.00 0.00 0.00 54 999.0
20260830022503 87 190 1.0 5.0 0.00 0.00 0.00 54 999.1